Temp
18 21 22 23 24 27 27 29 31 29 30 31 31 31 30 32 32 28 27 28 26 24 22 20 21 20 20 20 20 19 19 19 19 18 18 18 18 18 18 18 18 18 18 18 18 17 17 17 17
21 22 23 26 25 26 28 30 28 30 31 30 30 29 31 30 29 26 27 27 26 25 22 22 21 21 20 20 20 19 19 19 19 18 18 18 18 18 17 17 17 17 17 17 17 17 17 17 17
20 23 25 25 26 27 28 30 29 29 29 29 30 30 32 28 28 27 27 26 26 25 23 22 21 20 20 20 20 19 19 18 19 19 18 18 18 18 17 17 16 16 16 16 16 16 17 17 17
22 24 25 25 26 28 29 29 28 28 29 30 31 30 28 26 27 27 25 26 26 25 24 22 20 20 20 20 20 20 20 20 19 19 18 18 18 17 18 18 17 16 16 16 16 16 17 17 17
22 25 24 25 27 29 28 28 27 29 29 29 29 29 27 25 25 25 25 26 26 26 23 20 20 20 20 20 20 20 20 19 19 19 18 18 19 19 18 18 18 18 17 16 16 16 17 17 17
21 24 23 25 26 28 27 27 27 28 28 29 28 30 25 23 24 25 25 26 26 26 23 21 20 20 20 20 20 20 20 19 19 19 19 18 19 19 18 18 18 18 17 17 17 17 18 18 18
20 23 24 26 27 26 26 27 27 27 28 27 28 29 24 22 20 21 22 23 26 24 22 21 20 20 20 20 20 20 20 19 19 19 19 19 19 19 18 18 18 18 17 17 17 17 17 18 18
21 22 25 26 26 25 26 26 26 26 25 26 26 28 24 22 19 20 21 22 25 24 22 22 21 20 20 19 19 20 19 19 19 19 19 19 18 18 18 18 17 18 18 18 18 17 18 18 18
20 19 22 26 26 26 26 25 24 24 25 25 25 25 23 22 19 19 20 20 23 25 22 22 22 21 21 20 19 19 19 19 19 19 19 19 19 18 18 18 18 17 17 18 18 18 18 18 18
18 19 23 27 27 26 25 26 25 25 25 24 25 25 20 20 19 19 20 20 20 23 22 23 22 21 20 20 19 20 19 19 19 19 19 21 21 20 20 18 18 18 18 18 18 18 18 18 19
19 19 24 23 21 24 24 25 25 26 25 24 23 24 20 20 20 20 20 21 20 22 22 22 21 22 21 20 21 22 21 21 22 21 21 22 21 19 19 19 18 18 18 18 18 18 17 19 19
18 21 20 22 19 23 24 25 25 26 25 24 23 24 22 19 19 19 22 21 21 20 21 20 21 21 21 21 21 23 22 22 22 22 21 21 21 21 21 21 20 20 20 20 20 20 20 19 19
19 18 21 20 22 23 24 24 25 24 23 23 23 24 24 21 20 19 19 21 22 21 22 21 21 21 21 21 22 23 23 22 22 21 21 21 21 21 21 21 20 20 20 20 20 20 20 20 20
20 17 20 19 21 22 22 23 22 25 24 23 23 24 24 23 23 20 20 21 21 21 20 20 20 20 22 21 21 23 23 22 22 21 20 21 21 21 20 20 20 20 20 20 20 20 20 20 20
21 19 19 20 19 21 22 22 21 25 24 24 23 24 24 23 23 23 22 23 21 20 20 20 19 19 20 20 21 21 22 21 22 21 21 20 20 20 20 20 20 20 20 20 20 20 19 20 20
20 20 18 19 20 21 21 21 23 24 24 24 25 25 24 24 23 23 22 23 23 21 20 20 19 19 19 20 21 21 21 21 22 22 21 21 20 20 20 20 20 20 20 19 19 20 20 20 20
19 19 19 20 21 21 20 21 24 25 23 23 25 26 25 25 24 23 22 22 23 22 22 21 20 20 20 21 20 21 21 22 22 22 22 21 21 20 20 20 20 20 20 20 19 19 19 20 20
18 20 21 21 20 21 20 21 24 23 22 23 24 26 26 26 24 23 22 22 22 22 21 21 21 21 21 20 19 20 21 21 21 22 22 21 21 20 20 20 20 20 20 19 19 19 19 19 19
21 21 22 22 21 20 20 21 22 24 22 22 23 25 26 26 25 22 21 21 22 21 21 21 21 20 20 20 20 19 20 20 21 21 21 21 21 20 20 20 20 20 20 20 20 19 19 19 19
19 21 20 20 20 20 21 21 22 23 23 23 23 24 25 27 26 23 21 21 21 20 20 20 20 20 20 20 20 20 20 20 20 20 19 19 19 19 19 19 19 19 19 19 19 19 19 18 18
19 20 19 20 20 20 20 20 21 23 23 23 23 23 24 24 27 25 22 21 21 20 20 19 19 19 19 19 19 19 19 19 19 19 19 19 18 18 18 17 17 17 17 17 17 18 18 18 18
18 20 20 19 19 19 20 20 23 23 23 23 23 23 23 23 25 26 23 21 19 20 19 18 19 18 18 17 17 18 18 19 20 19 18 17 16 16 16 16 16 16 16 16 16 16 16 16 16
18 19 19 19 18 19 19 18 22 23 23 23 23 23 24 23 24 25 23 21 19 18 16 17 17 17 16 16 17 17 18 19 18 18 16 16 15 16 16 16 15 14 14 14 15 15 15 16 16
18 18 18 18 18 15 19 19 21 23 23 23 24 24 24 23 23 23 22 20 19 17 16 16 16 16 16 16 16 17 18 17 17 16 16 15 14 14 14 15 14 14 13 13 13 13 14 15 15
17 17 15 15 14 16 20 20 21 23 24 23 23 24 24 24 23 22 22 21 20 17 15 15 15 15 15 15 15 15 16 15 16 15 15 14 14 13 12 13 13 12 12 12 12 12 13 13 14
17 18 17 16 18 19 18 17 20 23 23 24 23 22 21 22 23 22 22 22 19 16 14 14 15 15 14 14 14 14 14 14 13 13 13 13 12 12 11 11 11 11 11 11 11 12 13 13 13
16 16 18 16 17 17 19 19 21 22 22 21 21 21 21 21 21 20 19 18 19 17 15 15 15 14 14 13 13 13 12 12 12 11 11 11 10 10 10 10 10 10 10 10 10 11 11 11 11
14 17 15 14 15 16 19 19 20 22 22 22 22 21 21 21 20 20 18 16 17 17 15 15 15 14 13 12 12 11 11 10 10 10 9 9 8 8 8 8 8 8 8 9 9 9 9 9 10
14 14 15 16 17 17 18 19 21 22 22 20 21 20 19 19 19 19 18 15 16 15 14 14 14 13 12 12 11 10 9 9 9 8 8 8 8 7 7 7 7 7 7 7 8 9 8 9 8
15 15 16 15 15 16 17 17 21 20 20 20 20 19 18 17 17 17 17 15 14 13 13 13 13 12 12 11 10 10 9 8 8 7 7 7 6 6 6 6 6 6 6 6 7 7 7 7 7
Height
789 790 790 790 799 784 783 772 757 769 769 757 758 757 762 756 761 789 779 781 787 793 801 806 809 812 816 818 820 822 824 826 827 829 830 831 831 831 832 833 834 835 836 837 838 839 839 839 840
788 788 788 780 793 791 778 758 777 764 758 762 761 765 763 768 766 776 780 784 789 794 802 807 810 813 816 819 821 824 826 827 828 831 832 833 834 834 835 835 836 838 839 839 840 841 842 842 843
787 786 783 782 783 779 773 756 766 766 764 764 763 761 758 774 774 778 780 785 791 796 803 807 811 814 817 820 823 825 827 829 830 832 834 835 836 836 837 837 838 839 840 841 843 843 844 844 845
785 784 777 781 777 764 757 758 764 769 764 760 758 766 771 779 778 780 785 788 792 798 803 807 812 815 818 820 824 826 829 830 831 833 835 837 837 838 838 839 839 841 843 844 845 846 846 847 847
780 773 781 780 770 758 760 764 769 765 764 765 763 767 774 783 784 785 788 791 795 800 804 810 812 816 819 822 825 827 830 831 832 835 837 839 840 841 840 842 842 843 845 847 848 848 848 849 849
780 768 780 775 768 758 765 768 768 765 766 767 768 764 782 788 786 788 791 794 797 801 807 813 815 818 821 824 827 829 832 833 833 836 839 841 842 843 843 844 844 846 847 848 849 850 851 851 852
780 772 770 762 764 770 772 768 769 771 767 773 767 767 784 791 792 793 795 796 799 803 811 814 817 819 822 825 828 831 833 835 835 836 840 843 844 845 845 846 846 848 848 850 850 852 852 853 853
774 774 766 757 765 775 766 771 772 771 780 776 774 770 786 792 794 796 798 800 801 805 812 815 818 821 824 826 829 832 833 836 838 838 840 842 845 846 847 847 848 849 850 851 851 853 853 854 854
777 784 774 757 763 770 767 778 776 777 779 780 779 780 788 791 794 797 800 802 802 805 811 816 818 822 824 827 829 831 833 836 839 840 841 843 846 847 848 849 850 850 851 851 852 853 854 854 855
783 782 768 748 749 763 769 769 777 777 780 784 782 783 790 792 796 798 801 804 805 806 811 815 818 822 824 827 830 833 835 837 839 842 842 843 846 848 849 849 850 850 851 852 852 853 854 855 856
775 779 760 763 765 767 774 770 773 773 783 784 789 786 792 794 796 799 802 804 807 808 811 814 819 822 824 827 829 832 835 837 838 841 843 845 846 847 849 849 850 851 851 852 853 853 854 856 856
780 769 771 771 783 771 773 769 776 772 778 784 787 788 791 796 797 800 799 803 806 809 812 814 817 821 824 826 828 830 833 836 838 839 842 844 846 847 848 849 850 851 852 853 854 854 855 855 855
777 782 775 775 775 774 770 777 775 779 783 786 787 787 789 794 797 799 800 803 804 808 810 814 817 820 823 825 828 829 832 835 837 838 840 842 844 846 847 848 849 850 851 852 853 853 854 854 854
770 783 778 780 779 777 781 780 784 776 783 785 788 787 789 792 793 798 800 802 804 806 809 813 816 818 821 824 827 828 831 833 835 838 839 841 843 844 845 846 848 849 850 851 852 852 852 853 853
764 779 780 776 789 784 779 784 788 772 781 783 786 787 788 791 793 793 796 798 802 806 809 811 814 817 820 822 825 828 830 832 834 836 838 839 841 842 844 845 846 847 848 850 850 850 851 851 851
769 774 786 786 779 778 782 783 775 774 777 781 779 781 785 788 790 794 795 795 799 803 806 809 812 814 817 820 823 826 828 830 832 834 836 838 839 840 842 843 844 846 847 848 848 849 849 849 849
773 779 783 780 773 777 784 784 769 766 777 781 778 775 779 783 787 790 793 794 796 799 803 806 809 811 814 817 821 823 826 828 830 832 834 836 837 838 840 841 842 843 845 846 846 847 847 847 847
779 772 767 770 778 778 783 783 768 773 782 781 776 773 772 777 783 785 791 793 794 797 801 804 807 809 811 814 818 821 824 826 828 830 831 834 836 837 838 839 840 841 842 843 844 844 844 844 845
763 767 762 762 768 781 782 778 774 769 776 781 774 769 766 768 776 782 787 790 793 795 798 802 804 806 809 812 815 818 821 824 826 828 830 831 833 834 835 836 837 838 839 840 841 841 842 842 842
769 766 769 775 775 782 776 776 770 767 767 770 772 768 765 760 766 778 781 788 791 794 796 799 801 805 807 810 812 814 818 821 823 826 827 829 830 831 833 834 834 835 836 836 837 838 839 839 840
771 770 780 778 779 780 778 777 768 761 761 763 765 766 766 764 758 767 775 784 789 790 793 796 799 801 805 807 810 811 814 818 821 823 825 826 827 829 829 830 830 831 832 833 834 835 835 836 836
777 769 769 777 786 786 775 775 749 750 755 759 760 761 762 763 757 759 771 777 786 788 790 792 796 799 801 804 806 807 811 816 818 820 822 824 823 825 825 825 826 827 828 829 831 832 832 833 833
776 776 779 782 784 782 781 789 759 746 753 752 752 753 754 757 758 757 768 773 782 786 789 787 794 797 800 802 804 805 809 813 813 815 820 821 821 821 822 823 823 824 825 825 827 828 829 830 830
779 782 782 786 790 805 778 779 763 749 749 746 742 742 746 750 757 759 767 771 777 782 786 785 790 794 796 798 801 805 808 810 812 816 818 819 820 820 820 821 821 821 821 822 823 824 825 825 826
782 782 798 805 805 788 765 768 758 739 739 742 743 739 740 743 750 758 762 765 772 778 784 784 789 792 796 798 800 804 807 809 812 814 815 817 819 819 820 819 819 819 819 819 820 821 822 822 822
783 778 782 791 776 769 775 776 758 738 736 734 740 743 747 746 745 753 758 761 770 775 780 784 789 788 795 799 802 803 806 809 810 813 814 816 817 818 818 818 818 817 817 817 818 819 819 818 819
783 785 773 786 779 779 762 759 746 737 741 742 743 745 746 747 750 751 757 758 769 774 776 783 784 789 792 798 802 804 805 808 809 811 813 814 815 815 816 816 816 815 815 815 816 817 817 816 817
789 776 792 792 792 785 757 759 748 739 739 739 739 742 743 746 748 749 754 756 769 772 776 780 785 788 791 796 801 803 805 806 808 811 813 813 813 813 813 815 814 814 814 814 814 815 815 815 815
785 786 782 777 772 773 760 751 736 738 738 746 743 746 747 748 749 752 758 764 768 770 775 776 782 784 791 796 797 800 802 805 808 808 810 811 812 812 812 812 813 813 813 812 812 813 814 815 814
776 776 776 780 781 775 772 764 740 743 746 746 745 749 749 751 751 753 756 762 766 769 773 777 781 786 790 793 795 800 802 803 805 806 808 809 811 811 811 810 811 810 810 810 811 812 812 813 815
Wind_Speed
7 5 4 5 5 7 15 12 1 7 6 3 2 5 10 13 3 4 19 14 24 26 25 23 22 19 16 15 13 12 11 11 12 12 13 14 15 16 16 15 15 15 15 15 15 15 15 15 15
8 7 6 5 7 12 13 13 10 8 4 2 4 3 2 10 13 11 14 20 26 25 24 22 22 19 17 15 13 12 10 10 11 12 12 13 14 15 15 15 15 14 14 15 15 14 13 14 13
8 9 6 5 10 14 15 14 11 5 3 6 5 3 2 6 7 15 15 24 25 24 24 22 22 21 19 16 14 11 11 11 9 12 11 13 14 14 14 14 14 14 14 14 14 14 13 13 12
10 8 7 11 17 19 10 13 7 8 4 4 4 6 7 6 5 7 19 25 24 23 23 24 23 21 18 17 13 13 11 8 8 11 12 11 13 12 13 14 15 15 14 13 13 13 12 13 11
15 8 11 14 18 15 3 9 5 7 7 9 6 9 7 8 5 11 19 23 23 22 21 21 22 20 18 16 14 16 10 7 10 12 12 10 12 9 12 13 14 14 13 13 12 12 12 11 11
8 8 13 17 20 10 8 8 6 2 5 5 5 9 8 6 8 16 18 20 21 21 19 19 20 19 17 16 16 15 8 8 12 12 13 11 11 9 9 12 13 12 11 11 10 10 10 11 10
13 13 18 22 18 11 10 7 8 1 8 5 5 6 7 9 8 12 13 11 19 19 19 18 17 18 18 16 18 12 8 9 13 14 13 10 10 7 7 9 10 10 9 8 8 7 7 8 7
8 10 23 21 13 15 11 6 5 2 6 1 6 4 10 5 7 15 13 18 14 19 17 19 18 17 15 15 16 11 8 10 12 12 12 13 11 7 6 6 7 7 7 6 6 4 4 3 3
5 8 16 23 19 16 13 9 3 2 8 7 5 6 5 2 10 14 14 14 12 19 20 17 17 17 16 16 14 11 8 12 12 12 12 11 9 8 7 7 4 5 4 4 4 3 3 2 1
7 11 19 19 14 8 13 10 8 8 9 8 6 8 7 11 12 14 15 16 13 16 17 19 18 18 17 17 13 10 8 10 11 11 12 9 8 8 8 6 4 3 3 2 2 2 2 2 3
17 16 16 2 13 13 8 9 5 7 5 5 6 6 9 6 9 12 14 15 15 16 15 10 17 18 18 15 14 11 8 10 11 11 10 8 8 6 6 4 4 3 1 2 2 2 2 4 4
11 15 3 6 9 6 10 9 8 9 11 8 7 7 9 5 6 2 16 16 16 13 16 13 12 16 16 15 14 12 10 10 10 11 10 8 8 7 6 6 5 5 5 4 5 4 5 5 5
16 8 10 3 4 12 7 7 7 8 9 6 5 6 7 8 6 2 2 10 15 19 17 17 16 14 16 15 14 12 12 10 10 10 11 10 8 7 6 6 6 5 5 5 5 5 5 5 6
12 19 14 6 7 7 12 8 3 11 10 7 4 4 6 6 7 10 8 13 14 14 16 16 18 16 16 15 15 12 12 11 10 10 10 11 9 7 6 6 6 6 6 5 4 4 4 5 6
8 13 11 14 17 7 7 12 11 10 10 11 9 5 4 7 6 9 15 12 14 15 16 17 18 20 17 17 15 15 14 12 11 11 11 11 10 8 7 6 6 6 6 6 6 5 5 6 6
14 12 9 17 13 6 6 16 17 15 12 14 15 12 8 6 9 5 5 12 13 14 16 16 16 19 19 18 17 17 14 13 11 11 10 11 11 10 9 8 7 7 7 7 7 7 7 7 8
11 14 19 14 14 9 12 11 15 10 9 15 17 17 13 10 8 5 3 8 12 15 16 17 18 16 19 20 17 15 14 14 13 12 10 10 11 10 9 8 8 8 8 8 8 9 9 9 9
13 17 20 15 11 13 13 16 16 6 10 14 16 18 18 15 11 8 2 3 8 11 14 14 15 14 18 17 15 15 13 13 12 12 11 10 10 10 10 10 10 10 10 10 10 11 10 10 10
14 16 15 14 8 11 16 16 18 15 12 13 15 15 18 19 15 11 5 3 6 9 13 14 17 17 15 16 15 15 14 13 13 13 12 11 11 11 11 11 11 11 12 13 12 12 12 13 12
9 12 8 5 7 8 12 17 18 18 18 15 16 15 15 18 18 13 10 3 7 9 12 15 16 15 16 15 16 15 14 14 14 13 12 12 12 12 12 11 11 11 12 13 13 13 13 13 11
9 12 12 7 11 11 11 15 17 19 18 17 16 15 12 18 21 17 13 8 8 11 12 14 15 15 16 15 13 14 10 10 6 8 8 8 8 9 11 12 13 13 13 14 13 14 15 14 12
10 8 5 6 5 9 16 6 18 18 19 19 18 16 15 13 17 18 14 11 10 10 11 10 11 14 15 20 16 13 10 11 10 7 6 5 7 7 10 12 14 16 17 18 19 18 16 17 15
2 9 5 5 9 8 9 6 14 11 14 18 17 17 16 12 15 12 14 13 12 13 12 11 9 10 11 11 11 10 11 9 8 7 7 6 7 9 10 10 10 9 9 15 17 17 17 20 20
6 7 8 6 8 6 15 11 10 12 13 13 15 16 16 15 15 15 17 14 13 12 12 14 13 9 8 8 8 7 8 7 6 8 6 6 6 7 9 9 9 9 8 8 9 12 16 17 18
9 12 5 5 5 8 1 10 16 5 5 7 5 8 13 14 15 17 15 15 15 15 14 14 15 13 9 8 7 6 7 7 6 6 5 4 5 4 5 7 7 7 7 7 8 8 10 13 15
13 14 5 9 9 10 5 8 9 8 11 12 7 6 2 8 9 14 14 12 16 16 16 16 17 14 12 10 10 8 7 6 5 5 4 4 3 3 6 5 6 6 7 7 6 7 9 11 13
13 10 9 4 1 4 6 10 12 14 8 6 6 6 8 9 7 11 7 6 12 16 17 16 16 15 13 11 10 8 6 5 5 4 4 3 3 4 5 6 6 7 7 8 7 5 4 7 9
5 5 5 3 4 8 7 7 8 7 8 4 1 2 3 4 7 7 5 8 17 15 17 16 17 17 13 11 10 8 7 6 4 3 2 2 2 3 4 5 6 6 7 6 6 5 5 7 8
9 5 7 3 10 4 6 3 5 3 9 5 6 5 4 3 4 6 9 14 13 16 17 16 14 14 13 11 9 8 6 6 5 3 1 2 3 3 3 4 5 5 5 5 4 3 3 4 4
15 17 14 8 7 7 8 5 5 4 2 3 4 5 5 3 2 2 5 10 13 15 16 18 17 15 13 11 11 9 8 6 5 3 2 2 2 4 4 4 4 4 5 4 3 3 2 3 3
Wind_Direction
252 249 224 212 214 235 217 215 302 193 171 104 19 289 5 9 180 80 143 140 145 146 155 159 160 158 151 145 144 131 125 119 113 109 110 95 90 90 91 91 92 94 99 99 94 93 90 88 87
230 216 211 227 236 210 214 184 194 189 114 148 159 212 301 86 49 122 133 146 147 146 154 161 161 158 156 149 144 133 125 118 124 120 118 108 97 93 91 92 95 98 100 98 97 92 91 89 87
222 215 210 215 224 222 216 163 195 164 221 208 170 279 54 67 77 141 140 146 148 147 155 162 163 162 158 153 143 132 127 125 126 134 127 120 105 94 91 93 96 99 100 100 95 91 89 88 86
209 198 251 230 209 226 236 157 123 193 170 191 234 160 98 47 125 118 144 149 149 150 155 163 165 163 157 151 142 131 122 116 129 136 134 120 113 104 93 90 96 101 102 100 96 90 86 92 93
229 220 218 215 220 207 145 114 206 186 150 170 188 132 94 56 119 138 150 152 151 152 146 155 163 161 157 150 139 136 139 118 121 137 137 123 131 111 96 91 94 100 108 106 101 92 89 95 97
202 226 212 208 211 163 161 171 161 206 163 133 218 136 82 67 101 136 149 155 155 147 144 158 163 161 159 152 146 150 150 131 126 136 139 127 145 115 107 97 94 101 107 110 107 98 92 91 94
219 210 214 212 200 161 181 185 171 154 166 97 358 202 101 89 96 118 157 140 159 140 151 157 159 161 160 154 150 160 145 141 134 133 142 136 142 139 119 108 99 103 113 120 117 111 102 95 101
235 243 222 218 187 187 150 169 100 29 54 151 344 107 129 95 129 146 142 159 169 148 161 158 160 159 158 156 160 155 143 149 144 133 144 148 155 153 138 112 114 109 114 128 129 134 129 120 111
249 216 221 218 185 205 151 166 122 149 113 69 69 35 56 128 152 137 133 154 191 161 158 166 162 165 163 160 162 157 147 152 153 155 160 154 149 139 130 163 145 122 127 136 149 172 187 191 238
188 214 209 224 166 186 173 187 148 156 137 118 74 81 74 132 158 152 156 158 169 165 175 178 169 165 164 161 166 162 156 153 157 159 163 165 163 167 171 176 185 162 174 174 195 221 228 205 237
210 209 210 244 329 136 214 184 171 178 135 83 80 41 99 126 159 165 164 168 171 176 177 178 172 170 164 164 171 172 169 168 171 176 179 178 174 178 179 192 191 199 216 229 287 279 235 233 243
218 225 229 221 197 278 185 140 190 201 103 115 91 70 121 114 144 179 167 177 173 184 181 173 184 180 175 173 184 180 181 178 179 183 189 189 193 189 189 196 194 201 214 211 223 232 236 242 245
206 233 208 224 206 219 234 202 201 158 132 127 113 88 104 140 169 199 280 196 192 188 189 187 190 190 190 183 193 191 191 189 188 185 188 191 196 195 197 202 203 205 209 215 223 235 240 246 252
196 178 188 150 212 182 196 193 244 202 160 165 161 116 111 115 171 189 221 223 198 189 192 194 199 198 198 198 196 201 202 197 195 197 199 199 200 202 202 202 207 212 213 218 226 234 242 251 254
203 183 187 172 201 175 216 213 216 226 178 208 191 188 156 128 125 197 200 215 189 200 200 201 201 203 204 204 202 203 209 201 203 206 206 205 204 204 202 207 209 212 217 224 230 238 244 251 258
207 198 184 205 205 170 209 234 219 218 206 227 223 212 205 167 142 144 212 212 215 209 209 203 201 204 204 210 204 207 204 208 206 207 206 208 206 204 205 212 217 219 221 225 230 238 245 254 260
197 202 206 174 194 205 213 235 248 178 210 241 243 232 217 201 168 150 152 211 222 222 212 206 203 200 203 206 204 211 207 209 207 208 208 210 211 211 213 220 225 225 230 234 239 243 246 257 264
179 228 199 208 184 223 216 237 247 168 228 239 242 238 228 215 204 155 139 233 216 220 218 210 203 203 198 197 206 213 206 210 217 214 215 212 218 219 223 231 236 236 237 241 241 245 249 254 263
200 220 216 215 134 205 228 242 228 245 213 235 241 239 236 211 189 158 141 190 214 213 208 208 204 198 202 195 198 205 204 214 219 225 226 227 225 229 230 237 242 241 243 246 249 251 251 254 258
200 203 189 190 174 218 240 235 239 237 235 234 239 241 242 231 199 168 143 179 215 217 209 206 216 214 203 207 205 203 211 221 226 231 231 234 234 235 236 239 245 248 249 250 251 250 252 254 254
202 202 175 199 192 230 269 264 245 235 236 234 238 242 246 253 213 188 163 197 213 209 201 209 209 204 205 207 209 198 191 193 204 219 229 229 231 236 238 242 247 251 249 251 256 254 248 247 247
189 246 241 189 214 237 197 274 212 220 224 227 234 234 234 247 254 200 178 176 213 213 186 184 199 201 202 204 202 204 194 205 222 217 204 219 235 233 252 254 252 254 255 256 257 257 254 250 242
232 165 185 218 238 296 210 250 265 249 228 223 224 232 230 229 240 206 189 176 198 194 192 168 185 192 199 204 203 190 211 221 207 216 224 225 248 247 255 257 256 258 256 256 259 262 261 257 255
141 167 207 209 253 247 242 218 255 237 218 233 233 228 228 212 218 241 192 188 186 184 189 173 176 183 199 199 198 197 191 189 203 208 218 225 236 260 262 260 259 261 265 269 264 261 256 255 252
206 177 168 205 218 239 293 244 240 246 244 248 287 256 226 216 205 218 200 200 193 184 187 175 175 173 176 177 171 184 189 191 189 198 205 215 223 243 263 265 263 261 267 268 266 264 264 258 252
212 207 207 214 216 222 150 240 243 250 275 253 240 228 265 280 204 211 213 209 199 185 183 183 181 158 169 169 163 158 162 165 160 176 178 183 193 218 258 272 272 270 270 271 276 275 264 259 250
212 227 250 290 293 305 218 232 265 256 222 208 220 229 236 228 216 222 243 131 207 192 188 191 171 167 163 166 166 163 154 160 162 182 193 199 229 240 265 281 283 286 286 281 272 265 268 252 240
242 232 179 233 238 237 235 258 271 189 203 153 94 259 233 264 249 190 200 199 225 194 182 179 175 167 158 160 161 157 151 150 165 172 176 208 251 275 284 290 293 294 292 287 280 255 252 242 241
207 218 221 266 236 279 257 212 45 141 128 25 48 28 348 317 247 216 179 175 183 173 173 164 170 156 162 165 155 147 149 158 161 163 218 257 278 284 286 291 298 302 298 298 293 266 252 232 231
234 228 230 221 203 239 289 291 126 130 197 348 60 66 43 12 337 265 194 171 168 165 169 172 166 166 165 162 157 160 160 157 151 158 202 257 274 300 287 291 290 298 299 300 291 250 244 210 193